Location: La Pernelle
(49.6188°N, 1.2999°W)
Time: 13:05:20
(UTC+00:00)

USA 215 - Pass Details

Date: 12 June 2021
Orbit: 1100 x 1107 km, 123.0° (Epoch: 22 June)

Event Time Altitude Azimuth Distance (km) Brightness Sun altitude
Rises 21:01:40 0° 58° (ENE) 3,923 6.1 -6.6°
Reaches altitude 10° 21:04:32 10° 69° (ENE) 2,962 5.3 -6.9°
Maximum altitude 21:10:10 30° 129° (SE) 1,849 3.9 -7.5°
Drops below altitude 10° 21:15:47 10° 189° (S) 2,951 5.1 -8.0°
Sets 21:18:36 0° 200° (SSW) 3,906 5.8 -8.3°
